Date String (YYYY-MM-DD hh:mm:ss) UTC,Instrument flags,Ambient pressure (hPa),Sample flow (lpm),Bypass flow (lpm),Sample temperature (°C),Ambient temperature (°C),ASC tube jacket temperature (°C),LED temperature (°C),Box temperature (°C),Sample RH (%),Span deviation,Mass concentration (μg/m³),Mass concentration (μg/m³),Mass concentration (μg/m³)
DateTimeUTC,F1_M11,P_M11,Q1_M11,Q2_M11,T1_M11,T2_M11,T3_M11,T4_M11,T5_M11,U1_M11,ZSPAN_M11,X0_M11,X2_M11,X1_M11
2022-02-16 12:00:00,,0815.8,4.99,0.00,23.7,22.8,00.0,32.7,25.5,13.3,0000.0,0009.41,0003.85,0003.09
2022-02-16 12:01:00,,0815.8,5.01,0.00,23.7,22.8,00.0,32.7,25.5,13.3,0000.0,0009.50,0003.83,0003.08
2022-02-16 12:02:00,,0815.8,5.00,0.00,23.7,22.9,00.0,32.7,25.5,13.3,0000.0,0009.61,0003.83,0003.07
2022-02-16 12:03:00,,0815.8,5.00,0.00,23.7,22.9,00.0,32.7,25.5,13.3,0000.0,0010.33,0003.88,0003.08
2022-02-16 12:04:00,,0815.8,5.02,0.00,23.7,22.9,00.0,32.7,25.5,13.3,0000.0,0009.91,0003.92,0003.07
2022-02-16 12:05:00,,0815.8,5.00,0.00,23.7,22.9,00.0,32.7,25.5,13.3,0000.0,0010.18,0003.92,0003.08
2022-02-16 12:06:00,,0815.9,4.99,0.00,23.7,22.9,00.0,32.7,25.5,13.3,0000.0,0010.10,0003.92,0003.09
2022-02-16 12:07:00,,0816.0,5.00,0.00,23.6,22.9,00.0,32.7,25.5,13.3,0000.0,0010.03,0003.92,0003.10
2022-02-16 12:08:00,,0816.0,5.01,0.00,23.7,22.9,00.0,32.6,25.4,13.3,0000.0,0009.94,0003.86,0003.09
2022-02-16 12:09:00,,0816.0,4.99,0.00,23.7,22.9,00.0,32.6,25.5,13.3,0000.0,0010.06,0003.86,0003.08
2022-02-16 12:10:00,,0815.9,4.99,0.00,23.7,22.9,00.0,32.6,25.5,13.2,0000.0,0010.01,0003.88,0003.10
2022-02-16 12:11:00,,0815.9,5.02,0.00,23.7,22.9,00.0,32.6,25.5,13.2,0000.0,0009.97,0003.89,0003.12
2022-02-16 12:12:00,,0815.8,4.99,0.00,23.7,22.8,00.0,32.6,25.5,13.2,0000.0,0010.45,0003.87,0003.13
2022-02-16 12:13:00,,0815.8,5.01,0.00,23.7,22.8,00.0,32.6,25.5,13.2,0000.0,0010.34,0003.85,0003.15
2022-02-16 12:14:00,,0815.8,4.99,0.00,23.7,22.8,00.0,32.6,25.5,13.2,0000.0,0009.56,0003.79,0003.15
2022-02-16 12:15:00,,0815.8,5.00,0.00,23.6,22.8,00.0,32.6,25.4,13.2,0000.0,0009.14,0003.71,0003.15
2022-02-16 12:16:00,,0815.8,5.02,0.00,23.6,22.8,00.0,32.6,25.4,13.2,0000.0,0008.96,0003.72,0003.15
2022-02-16 12:17:00,,0815.9,4.99,0.00,23.6,22.8,00.0,32.6,25.4,13.2,0000.0,0008.84,0003.65,0003.15
2022-02-16 12:18:00,,0815.9,5.02,0.00,23.6,22.8,00.0,32.6,25.3,13.3,0000.0,0009.23,0003.64,0003.14
2022-02-16 12:19:00,,0815.9,5.00,0.00,23.6,22.8,00.0,32.6,25.3,13.3,0000.0,0008.97,0003.67,0003.15
2022-02-16 12:20:00,,0815.9,4.99,0.00,23.6,22.7,00.0,32.6,25.3,13.3,0000.0,0008.58,0003.64,0003.16
2022-02-16 12:21:00,,0816.0,4.99,0.00,23.5,22.6,00.0,32.6,25.2,13.4,0000.0,0009.02,0003.64,0003.17
2022-02-16 12:22:00,,0816.0,5.00,0.00,23.5,22.5,00.0,32.6,25.2,13.4,0000.0,0009.08,0003.62,0003.17
2022-02-16 12:23:00,,0815.9,4.99,0.00,23.5,22.4,00.0,32.5,25.1,13.5,0000.0,0008.40,0003.63,0003.18
2022-02-16 12:24:00,,0815.9,5.00,0.00,23.4,22.3,00.0,32.5,25.1,13.5,0000.0,0008.39,0003.66,0003.17
2022-02-16 12:25:00,,0815.9,5.00,0.00,23.4,22.3,00.0,32.5,25.1,13.5,0000.0,0008.52,0003.70,0003.19
2022-02-16 12:26:00,,0815.9,5.00,0.00,23.4,22.3,00.0,32.5,25.1,13.6,0000.0,0008.70,0003.75,0003.19
2022-02-16 12:27:00,,0816.0,5.01,0.00,23.4,22.3,00.0,32.5,25.1,13.6,0000.0,0008.57,0003.77,0003.20
2022-02-16 12:28:00,,0816.0,4.98,0.00,23.3,22.3,00.0,32.4,25.0,13.6,0000.0,0008.57,0003.80,0003.20
2022-02-16 12:29:00,,0815.9,5.01,0.00,23.3,22.2,00.0,32.4,25.0,13.6,0000.0,0008.25,0003.83,0003.21
2022-02-16 12:30:00,,0816.0,4.98,0.00,23.3,22.1,00.0,32.4,25.0,13.7,0000.0,0008.27,0003.83,0003.21
2022-02-16 12:31:00,,0816.0,5.02,0.00,23.2,22.1,00.0,32.3,24.9,13.7,0000.0,0008.49,0003.86,0003.22
2022-02-16 12:32:00,,0816.0,4.99,0.00,23.2,22.1,00.0,32.3,24.9,13.7,0000.0,0008.53,0003.84,0003.21
2022-02-16 12:33:00,,0815.9,5.01,0.00,23.2,22.1,00.0,32.3,24.9,13.7,0000.0,0008.25,0003.85,0003.22
2022-02-16 12:34:00,,0815.9,5.01,0.00,23.1,22.0,00.0,32.3,24.8,13.8,0000.0,0008.43,0003.84,0003.22
2022-02-16 12:35:00,,0815.9,4.99,0.00,23.1,21.9,00.0,32.2,24.8,13.8,0000.0,0008.63,0003.81,0003.22
2022-02-16 12:36:00,,0815.9,5.01,0.00,23.1,21.9,00.0,32.2,24.8,13.8,0000.0,0008.69,0003.83,0003.22
2022-02-16 12:37:00,,0815.9,4.99,0.00,23.0,21.9,00.0,32.2,24.7,13.8,0000.0,0008.63,0003.81,0003.22
2022-02-16 12:38:00,,0815.9,5.01,0.00,23.0,21.9,00.0,32.2,24.7,13.8,0000.0,0008.57,0003.79,0003.23
2022-02-16 12:39:00,,0816.0,5.01,0.00,23.0,21.9,00.0,32.1,24.7,13.8,0000.0,0008.82,0003.83,0003.25
2022-02-16 12:40:00,,0816.0,4.99,0.00,23.0,21.9,00.0,32.1,24.7,13.8,0000.0,0008.89,0003.82,0003.25
2022-02-16 12:41:00,,0816.0,5.00,0.00,23.0,21.9,00.0,32.1,24.7,13.9,0000.0,0009.07,0003.84,0003.26
2022-02-16 12:42:00,,0816.2,5.00,0.00,22.9,21.9,00.0,32.1,24.7,13.9,0000.0,0008.93,0003.87,0003.28
2022-02-16 12:43:00,,0816.0,4.99,0.00,22.9,21.9,00.0,32.0,24.6,13.9,0000.0,0008.72,0003.90,0003.29
2022-02-16 12:44:00,,0816.0,5.01,0.00,22.9,21.8,00.0,32.0,24.6,13.9,0000.0,0009.38,0003.96,0003.30
2022-02-16 12:45:00,,0816.0,4.99,0.00,22.9,21.8,00.0,32.0,24.6,13.9,0000.0,0009.29,0003.98,0003.32
2022-02-16 12:46:00,,0816.1,5.01,0.00,22.8,21.8,00.0,32.0,24.5,13.9,0000.0,0009.24,0004.00,0003.34
2022-02-16 12:47:00,,0816.0,4.98,0.00,22.8,21.7,00.0,31.9,24.5,13.9,0000.0,0009.66,0003.97,0003.35
2022-02-16 12:48:00,,0816.0,5.01,0.00,22.8,21.6,00.0,31.9,24.4,14.0,0000.0,0010.30,0004.02,0003.37
2022-02-16 12:49:00,,0816.0,5.00,0.00,22.7,21.5,00.0,31.9,24.4,14.0,0000.0,0010.37,0004.08,0003.40
2022-02-16 12:50:00,,0816.0,5.01,0.00,22.7,21.5,00.0,31.9,24.3,14.0,0000.0,0010.12,0004.08,0003.41
2022-02-16 12:51:00,,0815.9,5.00,0.00,22.7,21.4,00.0,31.8,24.3,14.0,0000.0,0009.89,0004.09,0003.43
2022-02-16 12:52:00,,0815.9,4.99,0.00,22.6,21.3,00.0,31.8,24.3,14.0,0000.0,0010.01,0004.09,0003.46
2022-02-16 12:53:00,,0815.9,5.00,0.00,22.6,21.3,00.0,31.8,24.2,14.1,0000.0,0010.78,0004.12,0003.48
2022-02-16 12:54:00,,0815.9,4.99,0.00,22.6,21.3,00.0,31.7,24.2,14.1,0000.0,0010.98,0004.13,0003.52
2022-02-16 12:55:00,,0815.9,5.01,0.00,22.5,21.3,00.0,31.7,24.2,14.1,0000.0,0010.37,0004.13,0003.54
2022-02-16 12:56:00,,0816.0,4.98,0.00,22.5,21.3,00.0,31.7,24.2,14.1,0000.0,0010.23,0004.14,0003.57
2022-02-16 12:57:00,,0816.0,5.01,0.00,22.5,21.4,00.0,31.7,24.2,14.1,0000.0,0010.53,0004.19,0003.59
2022-02-16 12:58:00,,0816.0,4.98,0.00,22.5,21.4,00.0,31.6,24.2,14.1,0000.0,0010.40,0004.22,0003.60
2022-02-16 12:59:00,,0816.0,5.01,0.00,22.5,21.4,00.0,31.6,24.2,14.2,0000.0,0009.78,0004.19,0003.61
